Weather History for KLHQ - March, 2014

Change the Weather History Date:

Monday, March 3, 2014

  Actual Average Record
Temperature  
Mean Temperature 11 °F -  
Max Temperature 19 °F 49 °F 74 °F (1976)
Min Temperature 3 °F 26 °F -7 °F (1980)
Degree Days  
Heating Degree Days 54    
Moisture  
Dew Point 1 °F    
Average Humidity 60    
Maximum Humidity 80    
Minimum Humidity 43    
Precipitation  
Precipitation 0.00 in - - ()
Sea Level Pressure  
Sea Level Pressure 30.37 in    
Wind  
Wind Speed 12 mph (NNE)    
Max Wind Speed 18 mph    
Max Gust Speed -    
Visibility 10 miles    
Events      
Averages and records for this station are not official NWS values.
T = Trace of Precipitation, MM = Missing Value Source: NWS Daily Summary

Daily Weather History Graph

Daily Weather History Graph

Search for Another Location

Airport or City:

Trip Planner

Search our weather history database for the weather conditions in past years. The results will help you decide how hot, cold, wet, or windy it might be!

Date:

Astronomy

Mar. 03, 2014 Rise Set
Actual Time 7:00 AM EST 6:24 PM EST
Civil Twilight 6:33 AM EST 6:51 PM EST
Nautical Twilight 6:02 AM EST 7:23 PM EST
Astronomical Twilight 5:31 AM EST 7:54 PM EST
Moon 8:08 AM EST (3/3) 9:26 PM EST (3/3)
Length of Visible Light 12h 18m
Length of Day
11h 24m
Waxing Crescent, 8% of the Moon is Illuminated
Mar 3
Waxing Crescent
Mar 8
First Quarter
Mar 16
Full
Mar 23
Last Quarter
Mar 30
New

Hourly Weather History & Observations

Time (EST) Temp. Windchill Dew Point Humidity Pressure Visibility Wind Dir Wind Speed Gust Speed Precip Events Conditions
12:53 AM 15.1 °F -0.6 °F 5.0 °F 64% 30.25 in 10.0 mi NNE 16.1 mph - N/A   Overcast
1:53 AM 15.1 °F 1.1 °F 3.9 °F 61% 30.26 in 10.0 mi NNE 12.7 mph - N/A   Overcast
2:53 AM 14.0 °F -2.0 °F 3.0 °F 62% 30.25 in 10.0 mi NNE 16.1 mph - N/A   Overcast
3:53 AM 12.9 °F -3.4 °F 3.0 °F 65% 30.26 in 10.0 mi NNE 16.1 mph - N/A   Overcast
4:53 AM 12.9 °F -3.4 °F 1.9 °F 62% 30.28 in 10.0 mi NNE 16.1 mph - N/A   Clear
5:53 AM 12.0 °F -4.5 °F -0.0 °F 59% 30.30 in 10.0 mi NNE 16.1 mph - N/A   Clear
6:53 AM 12.0 °F -5.6 °F -0.9 °F 56% 30.30 in 10.0 mi NE 18.4 mph - N/A   Clear
7:53 AM 10.9 °F -4.7 °F -0.0 °F 61% 30.33 in 10.0 mi NE 13.8 mph - N/A   Clear
8:53 AM 12.0 °F -1.3 °F -0.0 °F 59% 30.35 in 10.0 mi NE 10.4 mph - N/A   Clear
9:53 AM 12.9 °F -0.2 °F -0.0 °F 56% 30.37 in 10.0 mi NE 10.4 mph - N/A   Clear
10:53 AM 15.1 °F 1.8 °F 1.9 °F 56% 30.38 in 10.0 mi NNE 11.5 mph - N/A   Clear
11:53 AM 17.1 °F 5.8 °F 3.0 °F 54% 30.39 in 10.0 mi NNE 9.2 mph - N/A   Clear
12:53 PM 18.0 °F 6.9 °F 3.0 °F 52% 30.39 in 10.0 mi NNE 9.2 mph - N/A   Clear
1:53 PM 19.0 °F 8.2 °F -0.0 °F 43% 30.39 in 10.0 mi NNW 9.2 mph - N/A   Clear
2:53 PM 19.0 °F 6.8 °F 1.0 °F 46% 30.38 in 10.0 mi North 11.5 mph - N/A   Clear
3:53 PM 19.0 °F 6.8 °F 1.0 °F 46% 30.41 in 10.0 mi North 11.5 mph - N/A   Clear
4:53 PM 19.0 °F 9.0 °F -0.0 °F 43% 30.42 in 10.0 mi North 8.1 mph - N/A   Clear
5:53 PM 17.1 °F 7.6 °F 1.0 °F 50% 30.43 in 10.0 mi NNE 6.9 mph - N/A   Clear
6:53 PM 10.9 °F 2.9 °F -0.0 °F 61% 30.44 in 10.0 mi North 4.6 mph - N/A   Clear
7:53 PM 7.0 °F -1.7 °F -0.9 °F 70% 30.44 in 10.0 mi North 4.6 mph - N/A   Clear
8:53 PM 9.0 °F -0.9 °F -0.0 °F 67% 30.45 in 10.0 mi NNW 5.8 mph - N/A   Clear
9:53 PM 6.1 °F -2.8 °F -0.0 °F 76% 30.45 in 10.0 mi NNW 4.6 mph - N/A   Clear
10:53 PM 3.0 °F -4.4 °F -2.0 °F 80% 30.43 in 10.0 mi NNE 3.5 mph - N/A   Clear
11:53 PM 3.9 °F -3.4 °F -0.9 °F 80% 30.41 in 9.0 mi NE 3.5 mph - N/A   Clear